This is the latest recevied weather packets stored in our database for station/object DL9OAC-5. If no packets are shown the sender has not sent any weather packets the latest 10 day(s).
| Time | Temp. | Humidity | Pressure | Rain* | Wind** | Luminosity | Snow |
|---|---|---|---|---|---|---|---|
| 1777392460 | 28.33° C | 27% | 1023.3 hPa | - | - | - | - |
| 1777392160 | 26.11° C | 27% | 1023.3 hPa | - | - | - | - |
| 1777391859 | 26.11° C | 26% | 1023.2 hPa | - | - | - | - |
| 1777390059 | 29.44° C | 19% | 1023.7 hPa | - | - | - | - |
| 1777389759 | 31.67° C | 16% | 1023.7 hPa | - | - | - | - |
| 1777389459 | 36.11° C | 15% | 1023.8 hPa | - | - | - | - |
| 1777388848 | 36.67° C | 15% | 1023.8 hPa | - | - | - | - |
| 1777388547 | 37.22° C | 15% | 1023.9 hPa | - | - | - | - |
| 1777388247 | 37.22° C | 15% | 1024.3 hPa | - | - | - | - |
| 1777387942 | 37.22° C | 15% | 1024.3 hPa | - | - | - | - |
| 1777387643 | 37.78° C | 16% | 1024.3 hPa | - | - | - | - |
| 1777387343 | 38.33° C | 17% | 1024.4 hPa | - | - | - | - |
| 1777387042 | 38.33° C | 17% | 1024.3 hPa | - | - | - | - |
| 1777386742 | 38.33° C | 18% | 1024.4 hPa | - | - | - | - |
| 1777386442 | 38.33° C | 18% | 1024.5 hPa | - | - | - | - |
| 1777386143 | 38.33° C | 19% | 1024.6 hPa | - | - | - | - |
| 1777385842 | 37.78° C | 19% | 1024.6 hPa | - | - | - | - |
| 1777385542 | 37.78° C | 19% | 1024.5 hPa | - | - | - | - |
| 1777385242 | 37.78° C | 20% | 1024.6 hPa | - | - | - | - |
| 1777384942 | 37.22° C | 20% | 1024.8 hPa | - | - | - | - |
| 1777384342 | 36.67° C | 21% | 1024.8 hPa | - | - | - | - |
| 1777383742 | 35.56° C | 21% | 1024.8 hPa | - | - | - | - |
| 1777383442 | 35° C | 22% | 1024.8 hPa | - | - | - | - |
| 1777383142 | 34.44° C | 22% | 1024.7 hPa | - | - | - | - |
| 1777382842 | 33.89° C | 22% | 1024.8 hPa | - | - | - | - |
* Rain since midnight (hover to see other rain measurements)
** Current wind speed in m/s (hover to see current wind gust speed)